NKS406 KFLL-KTPA

Flight info

Callsign NKS406
Flight time N/A
Altitude 22000
Route BNICE2 COREA BLFRG3
Aircraft A320/M-SDE3FGHIRWY/LB1

Departure

Time 2026-05-04 01:41
Airport Fort Lauderdale Hollywood International Airport (KFLL)

Arrival

Time N/A
Airport Tampa International Airport (KTPA)
Time Latitude Longitude Altitude Speed Heading
2026-05-04 01:21 26.07411 -80.14118 17 ft 0 kts 142°
2026-05-04 01:33 26.07426 -80.14131 17 ft 4 kts 142°
2026-05-04 01:33 26.07436 -80.14140 17 ft 0 kts 142°
2026-05-04 01:34 26.07435 -80.14139 -2 ft 0 kts 142°
2026-05-04 01:34 26.07433 -80.14137 17 ft 1 kts 142°
2026-05-04 01:34 26.07426 -80.14131 16 ft 2 kts 138°
2026-05-04 01:35 26.07429 -80.14121 17 ft 3 kts 58°
2026-05-04 01:35 26.07449 -80.14110 16 ft 4 kts 356°
2026-05-04 01:35 26.07478 -80.14122 16 ft 5 kts 317°
2026-05-04 01:35 26.07484 -80.14147 17 ft 0 kts 270°
2026-05-04 01:37 26.07484 -80.14176 16 ft 11 kts 271°
2026-05-04 01:37 26.07486 -80.14292 16 ft 17 kts 271°
2026-05-04 01:37 26.07489 -80.14439 16 ft 20 kts 271°
2026-05-04 01:38 26.07491 -80.14605 16 ft 23 kts 270°
2026-05-04 01:38 26.07487 -80.14793 16 ft 25 kts 268°
2026-05-04 01:38 26.07488 -80.14980 16 ft 27 kts 273°
2026-05-04 01:38 26.07491 -80.15197 16 ft 29 kts 268°
2026-05-04 01:39 26.07488 -80.15428 16 ft 31 kts 272°
2026-05-04 01:39 26.07493 -80.15668 16 ft 31 kts 270°
2026-05-04 01:39 26.07494 -80.15914 16 ft 32 kts 270°
2026-05-04 01:39 26.07496 -80.16161 16 ft 32 kts 270°
2026-05-04 01:40 26.07496 -80.16416 16 ft 34 kts 270°
2026-05-04 01:40 26.07519 -80.16636 16 ft 18 kts 324°
2026-05-04 01:40 26.07635 -80.16637 17 ft 23 kts
2026-05-04 01:40 26.07693 -80.16348 20 ft 73 kts 90°
2026-05-04 01:41 26.07693 -80.15543 17 ft 133 kts 90°
2026-05-04 01:41 26.07656 -80.14377 250 ft 154 kts 91°
2026-05-04 01:41 26.07658 -80.13192 885 ft 154 kts 87°
2026-05-04 01:41 26.07737 -80.11989 1441 ft 157 kts 83°
2026-05-04 01:42 26.07862 -80.10757 1909 ft 170 kts 81°
2026-05-04 01:42 26.08191 -80.09414 2223 ft 191 kts 70°
2026-05-04 01:42 26.08694 -80.07961 2528 ft 214 kts 61°
2026-05-04 01:42 26.09806 -80.06769 2824 ft 238 kts 21°
2026-05-04 01:43 26.11499 -80.06446 3312 ft 259 kts
2026-05-04 01:43 26.13274 -80.06069 3830 ft 274 kts 15°
2026-05-04 01:43 26.15096 -80.05411 3981 ft 274 kts 11°
2026-05-04 01:43 26.17000 -80.05343 4054 ft 268 kts 347°
2026-05-04 01:44 26.18777 -80.05858 3995 ft 268 kts 340°
2026-05-04 01:44 26.20521 -80.06605 4131 ft 270 kts 328°
2026-05-04 01:44 26.22021 -80.07901 5095 ft 269 kts 311°
2026-05-04 01:44 26.23142 -80.09562 6187 ft 268 kts 297°
2026-05-04 01:45 26.23888 -80.11446 7004 ft 268 kts 290°
2026-05-04 01:45 26.24586 -80.13397 8025 ft 268 kts 289°
2026-05-04 01:45 26.25675 -80.17359 9688 ft 275 kts 276°
2026-05-04 01:46 26.25964 -80.19507 10204 ft 290 kts 277°
2026-05-04 01:46 26.26285 -80.21814 10540 ft 310 kts 277°
2026-05-04 01:46 26.26628 -80.24220 11192 ft 316 kts 277°
2026-05-04 01:46 26.26980 -80.26672 11764 ft 324 kts 277°
2026-05-04 01:47 26.27335 -80.29152 12639 ft 323 kts 277°
2026-05-04 01:47 26.27689 -80.31622 13420 ft 324 kts 277°
2026-05-04 01:47 26.28045 -80.34113 14122 ft 327 kts 277°
2026-05-04 01:47 26.28401 -80.36626 14771 ft 329 kts 276°
2026-05-04 01:48 26.28758 -80.39156 15422 ft 331 kts 276°
2026-05-04 01:48 26.29122 -80.41698 16071 ft 333 kts 276°
2026-05-04 01:48 26.29487 -80.44253 16715 ft 335 kts 276°
2026-05-04 01:48 26.29851 -80.46820 17354 ft 337 kts 276°
2026-05-04 01:49 26.30209 -80.49383 17995 ft 339 kts 276°
2026-05-04 01:49 26.30576 -80.51991 18583 ft 342 kts 276°
2026-05-04 01:49 26.30949 -80.54608 19166 ft 343 kts 275°
2026-05-04 01:49 26.31323 -80.57243 19790 ft 344 kts 275°
2026-05-04 01:50 26.31696 -80.59879 20403 ft 345 kts 275°
2026-05-04 01:50 26.32067 -80.62536 20982 ft 347 kts 275°
2026-05-04 01:50 26.32433 -80.65192 21543 ft 349 kts 275°
2026-05-04 01:50 26.32808 -80.67872 21937 ft 351 kts 275°
2026-05-04 01:51 26.33184 -80.70555 22032 ft 345 kts 275°
2026-05-04 01:51 26.33553 -80.73175 22042 ft 339 kts 274°
2026-05-04 01:51 26.33914 -80.75759 22045 ft 337 kts 274°
2026-05-04 01:51 26.34274 -80.78346 22046 ft 337 kts 274°
2026-05-04 01:52 26.34635 -80.80931 22044 ft 337 kts 274°
2026-05-04 01:52 26.34988 -80.83481 22040 ft 336 kts 274°
2026-05-04 01:52 26.35341 -80.86066 22043 ft 336 kts 274°
2026-05-04 01:52 26.35687 -80.88602 22046 ft 336 kts 274°
2026-05-04 01:53 26.36236 -80.91152 22047 ft 342 kts 284°
2026-05-04 01:53 26.37349 -80.93544 22044 ft 352 kts 297°
2026-05-04 01:53 26.39003 -80.95604 22047 ft 363 kts 308°
2026-05-04 01:53 26.40852 -80.97527 22048 ft 363 kts 308°
2026-05-04 01:54 26.42697 -80.99456 22046 ft 363 kts 308°
2026-05-04 01:54 26.44537 -81.01390 22045 ft 364 kts 308°
2026-05-04 01:54 26.46383 -81.03330 22047 ft 364 kts 308°
2026-05-04 01:54 26.48226 -81.05264 22056 ft 364 kts 308°
2026-05-04 01:55 26.50067 -81.07198 22058 ft 364 kts 308°
2026-05-04 01:55 26.51906 -81.09135 22059 ft 364 kts 308°
2026-05-04 01:55 26.53743 -81.11072 22060 ft 364 kts 308°
2026-05-04 01:55 26.55585 -81.13016 22061 ft 364 kts 308°
2026-05-04 01:56 26.57427 -81.14954 22062 ft 364 kts 308°
2026-05-04 01:56 26.59275 -81.16897 22065 ft 364 kts 308°
2026-05-04 01:56 26.61111 -81.18836 22091 ft 364 kts 308°
2026-05-04 01:56 26.62952 -81.20783 22082 ft 364 kts 307°
2026-05-04 01:57 26.64609 -81.22862 22082 ft 356 kts 300°
2026-05-04 01:57 26.66166 -81.25030 22086 ft 361 kts 302°
2026-05-04 01:57 26.67740 -81.27219 22678 ft 360 kts 301°
2026-05-04 01:57 26.69297 -81.29385 22079 ft 362 kts 301°
2026-05-04 01:58 26.70875 -81.31572 22081 ft 358 kts 301°
2026-05-04 01:58 26.72436 -81.33734 22082 ft 357 kts 301°
2026-05-04 01:58 26.73995 -81.35895 22081 ft 357 kts 301°
2026-05-04 01:58 26.75552 -81.38058 22073 ft 357 kts 300°
2026-05-04 01:59 26.77117 -81.40234 22080 ft 357 kts 300°
2026-05-04 01:59 26.78663 -81.42384 22072 ft 357 kts 300°
2026-05-04 01:59 26.80219 -81.44554 22081 ft 357 kts 300°
2026-05-04 01:59 26.81771 -81.46729 22081 ft 356 kts 300°
2026-05-04 02:00 26.83299 -81.48875 22076 ft 356 kts 300°
2026-05-04 02:00 26.84863 -81.51063 22080 ft 357 kts 300°
2026-05-04 02:00 26.86402 -81.53210 22087 ft 357 kts 300°
2026-05-04 02:00 26.87953 -81.55370 22077 ft 357 kts 300°
2026-05-04 02:01 26.89506 -81.57532 22083 ft 357 kts 300°
2026-05-04 02:01 26.91061 -81.59703 22089 ft 356 kts 300°
2026-05-04 02:01 26.92608 -81.61862 22124 ft 356 kts 300°
2026-05-04 02:01 26.94157 -81.64031 22128 ft 356 kts 300°
2026-05-04 02:02 26.95699 -81.66200 22141 ft 356 kts 301°
2026-05-04 02:02 26.97242 -81.68367 22144 ft 356 kts 301°
2026-05-04 02:02 26.98786 -81.70535 22143 ft 355 kts 301°
2026-05-04 02:02 27.00331 -81.72700 22150 ft 356 kts 301°
2026-05-04 02:03 27.01880 -81.74862 22142 ft 356 kts 301°
2026-05-04 02:03 27.03430 -81.77023 22148 ft 359 kts 301°
2026-05-04 02:03 27.05009 -81.79242 22152 ft 366 kts 301°
2026-05-04 02:03 27.06594 -81.81475 22139 ft 365 kts 301°
2026-05-04 02:04 27.08210 -81.83646 21737 ft 365 kts 307°
2026-05-04 02:04 27.10176 -81.85481 21289 ft 369 kts 314°
2026-05-04 02:04 27.12229 -81.87211 20836 ft 367 kts 315°
2026-05-04 02:04 27.14262 -81.88915 20389 ft 363 kts 315°
2026-05-04 02:05 27.16276 -81.90602 19841 ft 356 kts 315°
2026-05-04 02:05 27.18248 -81.92255 19012 ft 352 kts 315°
2026-05-04 02:05 27.20191 -81.93894 18198 ft 347 kts 315°
2026-05-04 02:05 27.22102 -81.95514 17284 ft 342 kts 315°
2026-05-04 02:06 27.23987 -81.97108 16597 ft 333 kts 316°
2026-05-04 02:06 27.25797 -81.98635 16132 ft 320 kts 316°
2026-05-04 02:06 27.27561 -82.00130 15669 ft 316 kts 316°
2026-05-04 02:06 27.29286 -82.01601 15229 ft 316 kts 316°
2026-05-04 02:07 27.31037 -82.03098 14801 ft 316 kts 316°
2026-05-04 02:07 27.32771 -82.04583 14378 ft 315 kts 316°
2026-05-04 02:07 27.34517 -82.06071 13947 ft 315 kts 317°
2026-05-04 02:07 27.36271 -82.07557 13478 ft 315 kts 317°
2026-05-04 02:08 27.38001 -82.09051 13055 ft 311 kts 316°
2026-05-04 02:08 27.39650 -82.10553 12654 ft 300 kts 315°
2026-05-04 02:08 27.41240 -82.12045 12368 ft 294 kts 315°
2026-05-04 02:08 27.42793 -82.13514 12079 ft 290 kts 314°
2026-05-04 02:09 27.44333 -82.14983 11682 ft 290 kts 314°
2026-05-04 02:09 27.45809 -82.16508 11320 ft 287 kts 311°
2026-05-04 02:09 27.47238 -82.18078 10971 ft 286 kts 311°
2026-05-04 02:09 27.48648 -82.19656 10626 ft 284 kts 311°
2026-05-04 02:10 27.50044 -82.21218 10286 ft 283 kts 311°
2026-05-04 02:10 27.51442 -82.22772 9943 ft 282 kts 311°
2026-05-04 02:10 27.52841 -82.24317 9569 ft 281 kts 312°
2026-05-04 02:10 27.54237 -82.25852 9190 ft 280 kts 312°
2026-05-04 02:11 27.55628 -82.27385 8821 ft 280 kts 313°
2026-05-04 02:11 27.57022 -82.28913 8454 ft 279 kts 313°
2026-05-04 02:11 27.58411 -82.30432 8095 ft 278 kts 313°
2026-05-04 02:11 27.59810 -82.31962 7653 ft 281 kts 314°
2026-05-04 02:12 27.61199 -82.33484 7296 ft 276 kts 314°
2026-05-04 02:12 27.62570 -82.34989 6675 ft 275 kts 314°
2026-05-04 02:12 27.63934 -82.36488 6186 ft 270 kts 315°
2026-05-04 02:12 27.65262 -82.37945 5714 ft 261 kts 315°
2026-05-04 02:13 27.66533 -82.39341 5351 ft 253 kts 315°
2026-05-04 02:13 27.67754 -82.40724 5031 ft 246 kts 311°
2026-05-04 02:13 27.68676 -82.42358 4741 ft 248 kts 292°
2026-05-04 02:13 27.69160 -82.44207 4335 ft 250 kts 278°
2026-05-04 02:14 27.69235 -82.46114 4150 ft 235 kts 275°
2026-05-04 02:14 27.69756 -82.47766 3780 ft 223 kts 315°
2026-05-04 02:14 27.71014 -82.48749 3497 ft 222 kts 336°
2026-05-04 02:14 27.72411 -82.49462 3357 ft 222 kts 339°
2026-05-04 02:15 27.73847 -82.50128 3271 ft 222 kts 340°
2026-05-04 02:15 27.75273 -82.50794 3171 ft 221 kts 340°
2026-05-04 02:15 27.76699 -82.51481 3094 ft 223 kts 339°
2026-05-04 02:15 27.78121 -82.52182 3007 ft 223 kts 339°
2026-05-04 02:16 27.79535 -82.52893 2914 ft 222 kts 338°
2026-05-04 02:16 27.80931 -82.53606 2822 ft 222 kts 338°
2026-05-04 02:16 27.82347 -82.54333 2732 ft 221 kts 340°
2026-05-04 02:16 27.83779 -82.54671 2618 ft 203 kts
2026-05-04 02:17 27.85160 -82.54623 2266 ft 195 kts
2026-05-04 02:17 27.86466 -82.54575 1967 ft 178 kts
2026-05-04 02:17 27.87638 -82.54535 1722 ft 159 kts
2026-05-04 02:17 27.88695 -82.54499 1544 ft 146 kts
2026-05-04 02:18 27.89696 -82.54463 1339 ft 143 kts
2026-05-04 02:18 27.90678 -82.54429 1153 ft 139 kts
2026-05-04 02:18 27.91324 -82.54406 1046 ft 141 kts
2026-05-04 02:18 27.92298 -82.54373 857 ft 140 kts
2026-05-04 02:19 27.93292 -82.54339 675 ft 143 kts
2026-05-04 02:19 27.94608 -82.54301 414 ft 142 kts
2026-05-04 02:19 27.95272 -82.54294 300 ft 144 kts
2026-05-04 02:19 27.96270 -82.54245 106 ft 143 kts
2026-05-04 02:20 27.97215 -82.54198 50 ft 118 kts
2026-05-04 02:20 27.97861 -82.54169 48 ft 59 kts